SCS-01 E

Last updated on Sat Jun 14 2025 00:02:04 GMT+0000 (Coordinated Universal Time)

1 63986U 25100E 25164.60897234 .00027347 00000+0 13201-2 0 9998 2 63986 97.4024 239.7435 0015176 154.3272 205.8719 15.18533094 4619
UTC large
Height (km)
Speed (km/s)
/
Latitude / Longitude
Inclination (degrees)
Orbital Period (minutes)
Azimuth
Elevation
Range (km)
Doppler Factor

Next 0 passes for location: London (51.5072 / 0.1276)

Sorry there are no passes over London.